Location: *
(40.7873°S, 98.7174°E)
Time: 10:46:37
(UTC+00:00)

CZ-2C R/B - Pass Details

Date: 24 May 2022
Orbit: 381 x 549 km, 35.0° (Epoch: 04 July)

Event Time Altitude Azimuth Distance (km) Brightness Sun altitude
Rises 11:51:49 0° 317° (NW) 2,495 5.6 -18.9°
Reaches altitude 10° 11:54:38 10° 339° (NNW) 1,583 4.1 -19.4°
Enters shadow 11:56:53 16° 18° (NNE) 1,232 3.0 -19.8°
